View from above orbital plane
|
View from above satellite
|
Ground track
|
The orbit data is extracted from the following two-line orbital elements,
1 42768U 17036D 19345.78912657 .00001633 00000-0 71508-4 0 9999
2 42768 97.3336 39.5730 0013804 325.8922 34.1427 15.23368430137113
Epoch (UTC): | 11 December 2019 18:56:20 |
Eccentricity: | 0.0013804 |
inclination: | 97.3336° |
perigee height: | 486 km |
apogee height: | 505 km |
right ascension of ascending node: | 39.5730° |
argument of perigee: | 325.8922° |
revolutions per day: | 15.23368430 |
mean anomaly at epoch: | 34.1427° |
orbit number at epoch: | 13711 |
The dashed part of the orbit path shows where the satellite is in the earth's shadow,
|
|